Location: Forli
(44.2227°N, 12.0407°E)
Time: 19:34:14
(UTC+01:00)

ISS - Pass Details

Date: 19 February 2026
Orbit: 416 x 427 km, 51.6° (Epoch: 6 March)

Event Time Altitude Azimuth Distance (km) Brightness Sun altitude
Exits shadow 04:09:43 11° 66° (ENE) 1,449 -0.2 -32.0°
Drops below altitude 10° 04:09:50 10° 66° (ENE) 1,495 -0.1 -32.0°
Sets 04:11:57 0° 61° (ENE) 2,360 1.1 -31.6°
